Regional Weather Roundup
Issued by NWS

Home | Current Version | Previous Version | Graphics & Text | Print | Product List | Glossary On
Versions: 1 2 3 4 5 6 7 8 9 10 11 12 13 14 15 16 17 18 19 20 21 22 23 24 25 26 27 28 29 30 31 32 33 34 35 36 37 38 39 40 41 42 43 44 45 46 47 48 49 50
000
ASUS43 KMPX 260410
RWRMN
WEATHER ROUNDUP FOR MINNESOTA
NATIONAL WEATHER SERVICE TWIN CITIES/CHANHASSEN MN
1100 PM CDT WED MAY 25 2016


NOTE: "FAIR" INDICATES FEW OR NO CLOUDS BELOW 12,000 FEET WITH NO
SIGNIFICANT WEATHER AND/OR OBSTRUCTIONS TO VISIBILITY. N/A MEANS
CURRENT SKY AND/OR WEATHER CONDITIONS ARE NOT AVAILABLE.

MNZ060>063-068>070-260500-
   Twin Cities Metro

CITY           SKY/WX    TMP DP  RH WIND       PRES   REMARKS
TWIN CITIES    PTCLDY    68  62  81 E7        29.83R
ST PAUL        MOCLDY    68  63  84 E7        29.83R
CRYSTAL        CLEAR     67  61  81 NE3       29.82R
BLAINE         CLEAR     66  64  94 E6        29.83S
EDEN PRAIRIE   CLEAR     68  62  81 E5        29.82R
SOUTH ST PAUL  PTCLDY    67  63  85 CALM      29.83R
LAKE ELMO      FAIR      63  61  94 NE3       29.85R
$$
MNZ001>005-007-008-013>017-022>024-027-028-260500-
   Northwest Minnesota

CITY           SKY/WX    TMP DP  RH WIND       PRES   REMARKS
BEMIDJI        CLOUDY    59  55  88 SE10      29.77F
HALLOCK        CLOUDY    61  59  94 E6        29.64F
ROSEAU         CLOUDY    59  54  82 SE17      29.69F
WARROAD        CLOUDY    59  55  88 SE18G25   29.72F
THIEF RVR FALL CLOUDY    61  55  82 S14       29.71S
CROOKSTON      CLOUDY    61  57  88 W14G20    29.72R
FOSSTON        CLEAR     57  55  94 S9        29.75S
DETROIT LAKES  PTCLDY    59  57  94 SE7       29.78S
MOORHEAD       RAIN      61  59  94 CALM      29.75S
PARK RAPIDS    MOCLDY    59  56  89 SE13      29.79R
MAHNOMEN       FAIR      58  56  95 S5        29.76R
$$
MNZ006-009>011-018-025>026-260500-
   North Central Minnesota

CITY           SKY/WX    TMP DP  RH WIND       PRES   REMARKS
BAUDETTE       CLOUDY    59  55  87 SE15G22   29.75F
FLAG ISLAND    RAIN      55  55 100 E17G24    29.74F
INTL FALLS     CLOUDY    59  51  75 SE8       29.80F
WASKISH        CLOUDY    59  55  88 SE12G18   29.77S
BIG FORK       PTCLDY    57  52  82 SE6       29.82S
LONGVILLE      CLOUDY    55  54  94 SE6       29.82F
GRAND RAPIDS   CLOUDY    55  51  86 E10       29.84F
CRANE LAKE     CLOUDY    57  48  72 SE6       29.85S
ORR            MOCLDY    57  46  67 CALM      29.81S
COOK           PTCLDY    55  50  82 SE5       29.84F
WALKER         CLOUDY    57  54  88 SE10      29.80S
$$
MNZ012-019>021-037-260500-
   Northeast Minnesota

CITY           SKY/WX    TMP DP  RH WIND       PRES   REMARKS
DULUTH         CLOUDY    47  45  93 E12       29.86F
ELY            CLOUDY    55  46  71 SE7       29.86F
HIBBING        PTCLDY    50  49  96 SE7       29.84F
EVELETH        CLEAR     52  48  87 E6        29.86F
DULUTH HARBOR  MOCLDY    45  45 100 NE16      29.90F
TWO HARBORS    CLOUDY    50  45  81 NE10G20   29.88F
SILVER BAY     PTCLDY    48  46  93 NE9G20    29.90R
GRAND MARAIS     N/A     47  42  83 E13G23    29.91F
G MARAIS ARPRT DRIZZLE   54  46  76 E13G18    29.91F
$$
MNZ029>031-032-039>041-046>048-054>057-064-260500-
   West Central Minnesota

CITY           SKY/WX    TMP DP  RH WIND       PRES   REMARKS
FERGUS FALLS   CLOUDY    63  63 100 CALM      29.72F
WHEATON        CLOUDY    66  63  88 SE5       29.75S
MORRIS         MOCLDY    68  57  68 S18       29.75F
ALEXANDRIA     MOCLDY    64  57  78 SE6       29.78F
ELBOW LAKE     FAIR      65  61  86 SE6       29.76R
WADENA         CLOUDY    61  57  88 E7        29.78S
GLENWOOD       MOCLDY    63  57  82 S9        29.80F
APPLETON       TSTM      64  52  63 SW17G28   29.82R
ORTONVILLE     CLOUDY    68  46  45 S17G26    29.76F
MADISON        RAIN      61  54  77 W13       29.83F
WILLMAR        MOCLDY    70  61  73 SW5       29.83R
$$
MNZ033>034-036-042>043-049>051-058-059-260500-
   Central Minnesota

CITY           SKY/WX    TMP DP  RH WIND       PRES   REMARKS
ST CLOUD       CLOUDY    62  60  93 E7        29.83R
SAUK CENTRE    FAIR      62  59  92 E8        29.82R
PAYNESVILLE    MOCLDY    66  65  96 NE8       29.82R
AITKIN         CLOUDY    57  50  77 E8        29.82F
PINE RIVER     CLOUDY    55  55 100 SE10      29.85S
BRAINERD       CLOUDY    55  54  96 SE10      29.82F
STAPLES        PTCLDY    57  55  94 SE6       29.80S
LONG PRAIRIE   MOCLDY    61  59  94 SE8       29.81S
LITTLE FALLS   CLEAR     57  55  94 SE6       29.82R
LITCHFIELD     PTCLDY    70  64  83 CALM      29.82R
BUFFALO        CLEAR     65  62  89 E10       29.84R
MAPLE LAKE     CLOUDY    66  64  95 E8        29.84R
HUTCHINSON     CLEAR     65  64  95 CALM      29.83R
$$
MNZ037-044-045-052-053-260500-
   East Central Minnesota

CITY           SKY/WX    TMP DP  RH WIND       PRES   REMARKS
PRINCETON      LGT RAIN  63  61  94 E5        29.84S
MORA           LGT RAIN  54  52  94 E5        29.86R
CAMBRIDGE      CLOUDY    63  55  77 CALM      29.82F
RUSH CITY      CLOUDY    59  58  96 SE3       29.84F FOG
MOOSE LAKE     CLOUDY    46  45  93 E3        29.85F FOG
HINCKLEY       CLOUDY    55  55 100 E6        29.85F
CLOQUET        CLOUDY    46  45  93 E8        29.86F FOG
MCGREGOR       MOCLDY    52  50  93 SE5       29.85F
$$
MNZ071>073-080-081-089-090-097-098-260500-
   Southwest Minnesota

CITY           SKY/WX    TMP DP  RH WIND       PRES   REMARKS
MONTEVIDEO     CLOUDY    70  46  43 NW18G30   29.84S
GRANITE FALLS  MOCLDY    71  48  45 W23G31    29.86R
CANBY          LGT RAIN  66  54  66 SW12G29   29.82F
MARSHALL       CLOUDY    66  50  56 NW17      29.84R
REDWOOD FALLS  CLEAR     70  59  68 W6        29.82R
OLIVIA         CLOUDY    70  59  68 W8        29.82R
PIPESTONE      RAIN      66  54  63 N13G21    29.89R
WINDOM         CLOUDY    66  61  82 CALM      29.83S
WORTHINGTON    PTCLDY    69  63  81 CALM      29.84R
JACKSON        CLOUDY    68  59  73 CALM      29.84R
TRACY          CLOUDY    69  62  78 W5        29.84R
SLAYTON        MOCLDY    66  62  86 CALM      29.86R
$$
MNZ065>067-074>077-082>085-091>093-260500-
   South Central Minnesota

CITY           SKY/WX    TMP DP  RH WIND       PRES   REMARKS
MANKATO        CLEAR     70  57  64 SE5       29.82S
NEW ULM        CLEAR     70  61  73 W5        29.82R
ST JAMES       PTCLDY    63  57  82 CALM      29.83R
FAIRMONT       PTCLDY    68  57  68 CALM      29.82R THUNDER
GLENCOE        CLEAR     68  64  88 CALM      29.82R
FARIBAULT      CLEAR     63  61  94 CALM      29.83R
OWATONNA       CLEAR     64  63  94 SE5       29.84R
WASECA         CLEAR     63  57  82 E3        29.84R
ALBERT LEA     CLEAR     70  63  78 S7        29.84R
$$
MNZ078>079-086>088-094>096-260500-
   Southeast Minnesota

CITY           SKY/WX    TMP DP  RH WIND       PRES   REMARKS
ROCHESTER      CLEAR     66  64  93 S6        29.86R
RED WING       CLEAR     64  63  94 E3        29.83S
STANTON        CLEAR     66  63  89 E3        29.82R
DODGE CENTER   CLEAR     66  63  88 S8        29.85R
WINONA         CLEAR     64  64 100 CALM      29.85R FOG
AUSTIN         CLEAR     70  63  78 S9        29.86R
PRESTON        CLEAR     64  60  87 S6        29.87S
$$
ABBREVIATIONS USED IN REMARKS
   TC - TEMPERATURES IN CELSIUS
  WCI - WIND CHILL INDEX
   HX - HEAT INDEX
  VSB - VISIBILITY
$$




USA.gov is the U.S. government's official web portal to all federal, state and local government web resources and services.